GLOBALSTAR M081

Last updated on Sun Jun 21 2026 00:03:18 GMT+0000 (Coordinated Universal Time)

1 37743U 11033E 26171.48355000 -.00000102 00000+0 11595-4 0 9992 2 37743 51.9927 185.6070 0000118 57.0362 101.3885 12.62265163690352
UTC large
Height (km)
Speed (km/s)
/
Latitude / Longitude
Inclination (degrees)
Orbital Period (minutes)
Azimuth
Elevation
Range (km)
Doppler Factor

Next 0 passes for location: London (51.5072 / 0.1276)

No passes found over London.
GLOBALSTAR M081